CW3224 Weather Reports


Display with metric or nautical units.
time (UTC)temp
F
wind
direction
speed
MPH
gust
MPH
rain 1hr
in
rain 24hr
in
rain mn
in
humidity
%
barometer
mb
20220121103352 5 34 3.0 9.0 0.00 0.02 0.00 63 1032.6
20220121102353 6 44 2.0 6.0 0.00 0.02 0.00 63 1032.2
20220121101352 6 341 2.0 5.0 0.00 0.03 0.00 63 1032.1
20220121100352 6 338 4.0 8.0 0.00 0.03 0.00 62 1032.1
20220121095349 6 0 1.0 6.0 0.00 0.03 0.00 61 1031.9
20220121094348 7 27 3.0 8.0 0.00 0.03 0.00 61 1031.6
20220121093350 7 12 3.0 9.0 0.00 0.03 0.00 60 1031.6
20220121092348 7 1 3.0 8.0 0.00 0.03 0.00 61 1031.6
20220121091349 7 337 3.0 8.0 0.00 0.03 0.00 60 1031.6
20220121090346 8 0 3.0 7.0 0.00 0.03 0.00 59 1031.6
20220121085346 8 356 2.0 7.0 0.00 0.03 0.00 60 1031.5
20220121084346 8 18 1.0 5.0 0.00 0.03 0.00 60 1031.3
20220121083346 9 44 2.0 6.0 0.00 0.03 0.00 59 1031.3
20220121082344 9 12 2.0 7.0 0.00 0.03 0.00 58 1031.1
20220121081342 9 356 3.0 7.0 0.00 0.03 0.00 57 1030.9
20220121080342 9 54 2.0 8.0 0.00 0.03 0.00 58 1030.9
20220121075343 10 348 3.0 11.0 0.00 0.03 0.00 58 1030.7
20220121074343 10 7 2.0 6.0 0.00 0.03 0.00 58 1030.6
20220121073344 10 11 3.0 7.0 0.00 0.03 0.00 57 1030.6
20220121072341 10 47 3.0 8.0 0.00 0.03 0.00 57 1030.5
20220121071337 11 20 4.0 11.0 0.00 0.03 0.00 55 1030.5
20220121070334 11 4 4.0 12.0 0.00 0.03 0.00 55 1030.5
20220121065334 11 10 4.0 9.0 0.00 0.03 0.00 55 1030.4
20220121064334 11 355 3.0 14.0 0.00 0.03 0.00 57 1030.0
20220121063334 12 317 3.0 11.0 0.00 0.03 0.00 56 1030.0
20220121062335 12 46 3.0 8.0 0.00 0.03 0.00 57 1030.0
20220121061327 12 33 3.0 7.0 0.00 0.03 0.00 58 1029.9
20220121060326 12 333 4.0 9.0 0.00 0.03 0.00 58 1029.9
20220121055326 13 73 3.0 8.0 0.00 0.03 0.00 60 1029.6
20220121054327 13 355 3.0 10.0 0.00 0.03 0.00 59 1029.5
20220121053326 13 28 3.0 10.0 0.00 0.03 0.00 59 1029.5
20220121052324 13 335 3.0 16.0 0.00 0.03 0.00 58 1029.4
20220121051326 13 15 4.0 12.0 0.00 0.03 0.00 58 1029.1
20220121050324 13 30 2.0 7.0 0.00 0.03 0.00 59 1029.1
20220121045319 14 18 3.0 8.0 0.00 0.03 0.03 57 1029.0
20220121044319 14 0 4.0 17.0 0.00 0.03 0.03 57 1029.0
20220121043903 15 145 3.0 10.0 0.00 0.03 0.03 57 1028.9
20220121043845 15 287 4.0 11.0 0.00 0.03 0.03 57 1029.1
20220121043821 14 339 4.0 10.0 0.00 0.03 0.03 57 1029.0
20220120192240 34 90 3.0 9.0 0.00 0.03 0.03 50 1019.2
20220120191238 35 269 3.0 13.0 0.00 0.03 0.03 50 1019.0
20220120190237 35 5 5.0 11.0 0.00 0.03 0.03 49 1019.0
20220120185236 36 37 3.0 7.0 0.00 0.03 0.03 50 1018.9
20220120184237 36 48 3.0 8.0 0.00 0.03 0.03 52 1018.7
20220120183238 36 144 4.0 9.0 0.00 0.03 0.03 53 1018.7
20220120182236 35 1 4.0 13.0 0.00 0.03 0.03 55 1018.5
20220120181234 35 338 4.0 10.0 0.00 0.03 0.03 57 1018.6
20220120180233 35 64 2.0 7.0 0.00 0.03 0.03 60 1018.6
20220120175233 35 62 4.0 11.0 0.00 0.03 0.03 59 1018.5
20220120174230 35 344 4.0 13.0 0.00 0.03 0.03 62 1018.5
20220120173231 35 352 3.0 8.0 0.00 0.03 0.03 65 1018.5
20220120172225 35 296 3.0 8.0 0.00 0.03 0.03 66 1018.5
20220120171222 35 17 3.0 8.0 0.00 0.03 0.03 67 1018.3
20220120170222 35 277 2.0 7.0 0.00 0.03 0.03 71 1018.3
20220120165222 34 22 2.0 9.0 0.00 0.03 0.03 73 1018.3
20220120164222 34 324 1.0 4.0 0.00 0.03 0.03 77 1018.3
20220120163222 33 287 2.0 5.0 0.00 0.03 0.03 82 1018.3
20220120162223 33 310 0.0 2.0 0.00 0.03 0.03 86 1018.1
20220120161220 33 266 1.0 5.0 0.00 0.03 0.03 88 1018.4
20220120160216 33 317 2.0 6.0 0.00 0.03 0.03 90 1018.4
20220120155216 33 23 1.0 5.0 0.00 0.03 0.03 91 1018.2
20220120154214 33 17 0.0 2.0 0.00 0.03 0.03 91 1018.3
20220120153214 33 243 0.0 0.0 0.00 0.03 0.03 91 1018.3
20220120152214 33 243 0.0 0.0 0.00 0.03 0.03 91 1018.4
20220120151214 33 243 0.0 0.0 0.00 0.03 0.03 91 1018.0
20220120150215 33 243 0.0 0.0 0.00 0.03 0.03 91 1018.0
20220120145208 33 244 0.0 0.0 0.00 0.03 0.03 91 1017.9
20220120144203 33 244 0.0 0.0 0.00 0.03 0.03 91 1017.8
20220120143200 33 244 0.0 4.0 0.00 0.03 0.03 91 1017.8
20220120142201 33 230 0.0 2.0 0.00 0.03 0.03 91 1017.3
20220120141202 33 183 0.0 0.0 0.00 0.03 0.03 91 1016.7
20220120140201 33 183 0.0 2.0 0.00 0.03 0.03 91 1016.7
20220120135156 33 183 1.0 3.0 0.00 0.03 0.03 91 1016.5
20220120134155 33 139 1.0 4.0 0.00 0.03 0.03 91 1016.4
20220120133155 32 148 1.0 4.0 0.00 0.03 0.03 91 1016.4
20220120132154 32 224 0.0 0.0 0.00 0.03 0.03 91 1016.3
20220120131152 32 207 0.0 0.0 0.00 0.03 0.03 90 1016.2
20220120130151 32 207 0.0 0.0 0.00 0.03 0.03 90 1016.2
20220120125149 32 207 0.0 0.0 0.00 0.03 0.03 90 1015.8
20220120124149 32 207 0.0 0.0 0.00 0.03 0.03 90 1015.5
20220120123147 32 207 0.0 0.0 0.00 0.03 0.03 90 1015.5
20220120122141 32 207 0.0 0.0 0.01 0.03 0.03 90 1015.3
20220120121141 32 207 0.0 0.0 0.01 0.03 0.03 90 1015.2
20220120120141 32 207 0.0 0.0 0.01 0.03 0.03 90 1015.2
20220120115139 32 207 0.0 0.0 0.01 0.03 0.03 90 1015.1
20220120114140 32 207 0.0 0.0 0.01 0.03 0.03 90 1014.8
20220120113141 32 207 0.0 0.0 0.02 0.03 0.03 90 1014.8
20220120112137 32 207 0.0 0.0 0.01 0.02 0.02 90 1014.9
20220120111137 32 207 0.0 0.0 0.02 0.02 0.02 90 1014.8
20220120110134 32 207 0.0 0.0 0.02 0.02 0.02 90 1014.8
20220120105125 32 207 0.0 1.0 0.02 0.02 0.02 89 1014.8
20220120104115 32 212 0.0 1.0 0.02 0.02 0.02 90 1014.5